DW4604 Weather Reports


time (UTC)temp
F
wind
direction
speed
knots
gust
knots
rain 1hr
in
rain 24hr
in
rain mn
in
humidity
%
barometer
mb
20211208132503 26 64 3.5 7.8 0.00 0.00 0.00 94 1007.7
20211208132003 26 65 3.5 11.3 0.00 0.00 0.00 94 1007.7
20211208131504 26 64 3.5 11.3 0.00 0.00 0.00 94 1007.7
20211208131003 26 67 3.5 9.6 0.00 0.00 0.00 94 1007.8
20211208130503 26 69 2.6 7.8 0.00 0.00 0.00 94 1007.8
20211208130004 26 69 1.7 6.1 0.00 0.00 0.00 94 1007.9
20211208125503 26 72 1.7 6.1 0.00 0.00 0.00 93 1008.0
20211208125003 26 72 1.7 7.0 0.00 0.00 0.00 93 1008.0
20211208124504 26 68 2.6 8.7 0.00 0.00 0.00 93 1008.0
20211208124004 26 67 2.6 8.7 0.00 0.00 0.00 93 1008.0
20211208123504 26 67 2.6 7.8 0.00 0.00 0.00 93 1008.0
20211208123003 26 70 2.6 7.8 0.00 0.00 0.00 93 1008.1
20211208122503 26 79 1.7 7.8 0.00 0.00 0.00 93 1008.0
20211208122003 26 77 2.6 7.8 0.00 0.00 0.00 93 1008.1
20211208121503 26 75 2.6 7.0 0.00 0.00 0.00 93 1008.1
20211208121004 26 69 2.6 8.7 0.00 0.00 0.00 93 1008.1
20211208120503 26 71 3.5 9.6 0.00 0.00 0.00 93 1008.1
20211208120004 26 83 2.6 9.6 0.00 0.00 0.00 93 1008.1
20211208115505 27 76 3.5 7.8 0.00 0.00 0.00 93 1008.1
20211208115003 26 70 3.5 8.7 0.00 0.00 0.00 93 1008.1
20211208114503 26 69 3.5 8.7 0.00 0.00 0.00 93 1008.1
20211208114003 26 67 4.3 8.7 0.00 0.00 0.00 93 1008.2
20211208113503 26 67 3.5 8.7 0.00 0.00 0.00 92 1008.2
20211208113003 27 71 2.6 7.8 0.00 0.00 0.00 92 1008.1
20211208112504 27 78 2.6 7.8 0.00 0.00 0.00 92 1008.1
20211208112003 27 84 1.7 7.8 0.00 0.00 0.00 93 1008.1
20211208111505 27 111 1.7 7.0 0.00 0.00 0.00 93 1008.2
20211208111005 27 103 2.6 9.6 0.00 0.00 0.00 92 1008.3
20211208110503 27 80 2.6 9.6 0.00 0.00 0.00 92 1008.3
20211208110004 27 73 2.6 8.7 0.00 0.00 0.00 92 1008.4
20211208105503 26 80 3.5 8.7 0.00 0.00 0.00 92 1008.4
20211208105003 26 111 2.6 7.0 0.00 0.00 0.00 92 1008.5
20211208104504 26 130 1.7 7.0 0.00 0.00 0.00 92 1008.5
20211208104003 26 79 2.6 9.6 0.00 0.00 0.00 93 1008.7
20211208103505 26 71 1.7 9.6 0.00 0.00 0.00 93 1008.8
20211208103004 26 88 0.9 6.1 0.00 0.00 0.00 93 1008.9
20211208102505 26 78 1.7 6.1 0.00 0.00 0.00 93 1008.9
20211208102005 26 67 1.7 6.1 0.00 0.00 0.00 93 1009.0
20211208101503 26 83 1.7 6.1 0.00 0.00 0.00 93 1008.9
20211208101004 26 83 2.6 8.7 0.00 0.00 0.00 93 1009.0
20211208100504 26 77 3.5 8.7 0.00 0.00 0.00 93 1009.0
20211208100004 26 74 2.6 7.8 0.00 0.00 0.00 93 1009.2
20211208095505 26 80 1.7 7.0 0.00 0.00 0.00 93 1009.3
20211208095004 26 94 1.7 8.7 0.00 0.00 0.00 93 1009.4
20211208094504 26 107 2.6 9.6 0.00 0.00 0.00 93 1009.4
20211208094004 26 83 2.6 9.6 0.00 0.00 0.00 93 1009.3
20211208093504 26 66 3.5 9.6 0.00 0.00 0.00 93 1009.4
20211208093004 26 63 3.5 10.4 0.00 0.00 0.00 93 1009.4
20211208092504 26 63 2.6 10.4 0.00 0.00 0.00 94 1009.3
20211208092004 26 71 2.6 10.4 0.00 0.00 0.00 94 1009.3
20211208091504 26 70 2.6 8.7 0.00 0.00 0.00 94 1009.3
20211208091004 26 68 2.6 11.3 0.00 0.00 0.00 94 1009.3
20211208090504 26 76 2.6 11.3 0.00 0.00 0.00 94 1009.2
20211208090003 26 75 2.6 9.6 0.00 0.00 0.00 94 1009.5
20211208085004 25 74 3.5 7.8 0.00 0.00 0.00 94 1009.4
20211208084504 25 83 3.5 9.6 0.00 0.00 0.00 94 1009.5
20211208084004 25 81 2.6 10.4 0.00 0.00 0.00 94 1009.4
20211208083504 25 71 2.6 10.4 0.00 0.00 0.00 95 1009.4
20211208083005 25 76 2.6 7.8 0.00 0.00 0.00 95 1009.5
20211208082504 25 73 2.6 7.8 0.00 0.00 0.00 95 1009.4
20211208082005 25 76 2.6 8.7 0.00 0.00 0.00 95 1009.4
20211208081004 25 71 2.6 8.7 0.00 0.00 0.00 95 1009.7
20211208080504 25 75 3.5 11.3 0.00 0.00 0.00 95 1009.6
20211208080005 25 73 2.6 11.3 0.00 0.00 0.00 95 1009.5
20211208075504 25 67 2.6 7.8 0.00 0.00 0.00 95 1009.6
20211208075005 25 71 2.6 11.3 0.00 0.00 0.00 95 1009.6
20211208074505 25 73 2.6 11.3 0.00 0.00 0.00 95 1009.6
20211208074004 25 71 2.6 10.4 0.00 0.00 0.00 95 1009.6
20211208073505 25 69 2.6 10.4 0.00 0.00 0.00 95 1009.5
20211208073004 25 67 3.5 8.7 0.00 0.00 0.00 95 1009.6
20211208072504 25 65 2.6 9.6 0.00 0.00 0.00 95 1009.5
20211208072004 25 70 2.6 9.6 0.00 0.00 0.00 95 1009.5
20211208071505 24 71 4.3 9.6 0.00 0.00 0.00 95 1009.3
20211208071005 25 68 3.5 9.6 0.00 0.00 0.00 95 1009.2
20211208070505 25 65 3.5 9.6 0.00 0.00 0.00 95 1009.2
20211208070005 25 68 3.5 9.6 0.00 0.00 0.00 95 1009.2
20211208065505 25 68 3.5 9.6 0.00 0.00 0.00 95 1009.3
20211208065007 25 71 2.6 9.6 0.00 0.00 0.00 96 1009.2
20211208064506 25 71 2.6 9.6 0.00 0.00 0.00 96 1009.3
20211208064005 25 67 3.5 9.6 0.00 0.00 0.00 96 1009.3
20211208063505 25 70 2.6 8.7 0.00 0.00 0.00 96 1009.4
20211208063004 25 69 3.5 8.7 0.00 0.00 0.00 96 1009.5
20211208062504 25 68 2.6 8.7 0.00 0.00 0.00 96 1009.5
20211208062004 25 71 2.6 6.1 0.00 0.00 0.00 95 1009.6
20211208061505 25 76 2.6 7.8 0.00 0.00 0.00 95 1009.6
20211208061006 25 75 2.6 7.8 0.00 0.00 0.00 95 1009.6
20211208060504 25 71 2.6 9.6 0.00 0.00 0.00 95 1009.6
20211208060006 25 71 2.6 9.6 0.00 0.00 0.00 95 1009.7
20211208055506 25 69 2.6 7.8 0.00 0.00 0.00 95 1009.7
20211208055005 25 66 3.5 10.4 0.00 0.00 0.00 95 1009.6
20211208054504 25 68 3.5 10.4 0.00 0.00 0.00 95 1009.7
20211208054006 25 67 2.6 8.7 0.00 0.00 0.00 95 1009.7
20211208053505 25 65 2.6 8.7 0.00 0.00 0.00 95 1009.7
20211208053005 25 65 2.6 7.8 0.00 0.00 0.00 95 1009.6
20211208052505 25 64 2.6 7.8 0.00 0.00 0.00 95 1009.8
20211208052006 25 63 3.5 8.7 0.00 0.00 0.00 95 1010.0
20211208051505 25 61 4.3 8.7 0.00 0.00 0.00 95 1009.9
20211208051005 26 48 3.5 5.2 0.00 0.00 0.00 95 1009.9
20211208050506 26 60 2.6 7.8 0.00 0.00 0.00 95 1009.9
20211208050006 26 67 2.6 7.8 0.00 0.00 0.00 95 1010.0
20211208045504 26 74 1.7 7.0 0.00 0.00 0.00 95 1010.0
20211208045005 26 72 1.7 6.1 0.00 0.00 0.00 95 1010.0
20211208044504 26 68 1.7 6.1 0.00 0.00 0.00 95 1010.0
20211208044005 26 68 1.7 6.1 0.00 0.00 0.00 95 1010.0
20211208043505 26 71 2.6 7.8 0.00 0.00 0.00 95 1010.1
20211208043005 26 70 2.6 7.8 0.00 0.00 0.00 95 1010.1
20211208042505 26 66 2.6 7.8 0.00 0.00 0.00 95 1010.2
20211208042005 26 63 2.6 7.8 0.00 0.00 0.00 96 1010.1
20211208041504 26 65 1.7 7.8 0.00 0.00 0.00 96 1010.2
20211208041005 26 65 1.7 7.8 0.00 0.00 0.00 96 1010.1
20211208040505 26 64 1.7 7.8 0.00 0.00 0.00 96 1010.1
20211208040006 27 64 2.6 9.6 0.00 0.00 0.00 96 1010.0
20211208035506 27 66 2.6 9.6 0.00 0.00 0.00 96 1009.9
20211208035005 27 69 2.6 7.8 0.00 0.00 0.00 96 1010.0
20211208034504 26 67 3.5 8.7 0.00 0.00 0.00 96 1010.1
20211208034004 27 67 2.6 9.6 0.00 0.00 0.00 96 1010.1
20211208033505 27 68 2.6 9.6 0.00 0.00 0.00 96 1010.0
20211208033005 27 68 2.6 11.3 0.00 0.00 0.00 96 1010.1
20211208032506 27 69 3.5 11.3 0.00 0.00 0.00 96 1010.2
20211208032004 27 68 3.5 7.8 0.00 0.00 0.00 96 1010.3
20211208031504 27 70 2.6 7.0 0.00 0.00 0.00 96 1010.4
20211208031004 27 87 1.7 6.1 0.00 0.00 0.00 96 1010.4
20211208030504 27 90 2.6 6.1 0.00 0.00 0.00 96 1010.4
20211208030005 27 70 1.7 6.1 0.00 0.00 0.00 96 1010.5
20211208025505 27 66 1.7 6.1 0.00 0.00 0.00 96 1010.3
20211208025005 27 66 1.7 7.0 0.00 0.00 0.00 96 1010.3
20211208024505 27 70 1.7 7.0 0.00 0.00 0.00 96 1010.5
20211208024004 27 70 2.6 7.0 0.00 0.00 0.00 96 1010.4
20211208023504 27 67 2.6 6.1 0.00 0.00 0.00 96 1010.7
20211208023005 27 65 2.6 7.8 0.00 0.00 0.00 96 1010.6
20211208022506 27 64 2.6 7.8 0.00 0.00 0.00 96 1010.6
20211208022006 27 66 1.7 6.1 0.00 0.00 0.00 96 1010.5
20211208021506 27 68 1.7 6.1 0.00 0.00 0.00 96 1010.6
20211208021005 27 71 1.7 5.2 0.00 0.00 0.00 96 1010.7
20211208020506 27 73 1.7 7.0 0.00 0.00 0.00 96 1010.8
20211208020005 27 74 1.7 7.0 0.00 0.00 0.00 96 1011.0
20211208015505 27 76 1.7 6.1 0.00 0.00 0.00 96 1011.1
20211208015006 27 75 1.7 6.1 0.00 0.00 0.00 96 1011.2
20211208014505 27 68 1.7 6.1 0.00 0.00 0.00 96 1011.3
20211208014005 27 68 1.7 6.1 0.00 0.00 0.00 96 1011.2
20211208013005 28 96 1.7 4.3 0.00 0.00 0.00 96 1011.2
20211208012012 28 74 0.9 3.5 0.00 0.00 0.00 96 1011.3
20211208011512 28 70 0.9 3.5 0.00 0.00 0.00 96 1011.4
20211208003450 28 68 1.7 6.1 0.00 0.00 0.00 96 1011.4
20211208002951 28 68 1.7 6.1 0.00 0.00 0.00 96 1011.4
20211208002451 28 69 1.7 5.2 0.00 0.00 0.00 96 1011.3
20211208001952 28 70 0.9 5.2 0.00 0.00 0.00 96 1011.3
20211208001451 28 71 0.9 2.6 0.00 0.00 0.00 96 1011.4
20211208000951 28 73 0.9 4.3 0.00 0.00 0.00 96 1011.4
20211208000453 28 75 1.7 4.3 0.00 0.00 0.00 96 1011.3
20211207235952 28 74 1.7 6.1 0.00 0.00 0.00 96 1011.3
20211207235452 28 69 1.7 6.1 0.00 0.00 0.00 96 1011.4
20211207234951 28 71 1.7 7.0 0.00 0.00 0.00 96 1011.4
20211207234451 28 72 1.7 7.0 0.00 0.00 0.00 96 1011.5
20211207233952 29 66 1.7 4.3 0.00 0.00 0.00 96 1011.4
20211207233451 29 67 1.7 5.2 0.00 0.00 0.00 96 1011.5
20211207232951 29 69 1.7 6.1 0.00 0.00 0.00 96 1011.5
20211207232450 29 68 1.7 6.1 0.00 0.00 0.00 96 1011.5
20211207231951 29 63 0.9 6.1 0.00 0.00 0.00 96 1011.6
20211207231451 29 64 0.9 3.5 0.00 0.00 0.00 96 1011.6
20211207230450 29 61 0.9 3.5 0.00 0.00 0.00 96 1011.6
20211207225952 29 62 0.9 4.3 0.00 0.00 0.00 96 1011.7
20211207225451 29 62 1.7 4.3 0.00 0.00 0.00 96 1011.8
20211207224950 29 59 1.7 4.3 0.00 0.00 0.00 96 1011.8
20211207223952 29 60 0.9 5.2 0.00 0.00 0.00 96 1012.0
20211207223451 29 60 1.7 5.2 0.00 0.00 0.00 96 1011.9
20211207222953 29 61 1.7 5.2 0.00 0.00 0.00 96 1011.9
20211207222451 29 60 1.7 4.3 0.00 0.00 0.00 96 1011.9
20211207221951 29 60 1.7 4.3 0.00 0.00 0.00 96 1012.1
20211207221451 29 64 1.7 4.3 0.00 0.00 0.00 96 1012.1
20211207220952 29 63 0.9 4.3 0.00 0.00 0.00 96 1012.1
20211207220451 29 62 0.9 4.3 0.00 0.00 0.00 96 1012.1
20211207215951 29 68 0.9 2.6 0.00 0.00 0.00 96 1012.1
20211207215452 29 59 0.9 2.6 0.00 0.00 0.00 96 1012.1
20211207214951 29 56 0.0 2.6 0.00 0.00 0.00 96 1012.2
20211207214451 29 64 0.0 1.7 0.00 0.00 0.00 96 1012.4
20211207213952 29 59 0.9 1.7 0.00 0.00 0.00 96 1012.3
20211207213451 29 60 0.9 1.7 0.00 0.00 0.00 96 1012.3
20211207212951 29 61 0.9 3.5 0.00 0.00 0.00 96 1012.4
20211207212451 29 59 0.9 3.5 0.00 0.00 0.00 96 1012.4
20211207211951 29 60 0.9 1.7 0.00 0.00 0.00 96 1012.3
20211207211451 30 61 0.9 1.7 0.00 0.00 0.00 96 1012.3
20211207210952 30 60 0.0 1.7 0.00 0.00 0.00 96 1012.4
20211207210452 30 60 0.0 1.7 0.00 0.00 0.00 96 1012.5
20211207205951 30 67 0.0 0.9 0.00 0.00 0.00 96 1012.6
20211207205451 30 70 0.0 0.9 0.00 0.00 0.00 96 1012.6
20211207204951 30 61 0.0 1.7 0.00 0.00 0.00 96 1012.7
20211207203951 30 0 0.0 0.0 0.00 0.00 0.00 96 1012.7
20211207203451 30 0 0.0 0.0 0.00 0.00 0.00 96 1012.7
20211207202951 30 57 0.0 0.9 0.00 0.00 0.00 96 1012.7
20211207202451 30 57 0.0 0.9 0.00 0.00 0.00 96 1012.7
20211207201952 30 57 0.0 0.9 0.00 0.00 0.00 96 1012.7
20211207201451 30 59 0.0 0.9 0.00 0.00 0.00 96 1012.6
20211207200951 30 60 0.0 0.9 0.00 0.00 0.00 96 1012.6
20211207200451 30 63 0.0 0.9 0.00 0.00 0.00 96 1012.6
20211207195953 30 71 0.0 1.7 0.00 0.00 0.00 96 1012.5
20211207195451 30 76 0.0 1.7 0.00 0.00 0.00 96 1012.5
20211207194951 30 78 0.0 0.9 0.00 0.00 0.00 96 1012.4
20211207194451 29 70 0.0 1.7 0.00 0.00 0.00 96 1012.5
20211207193953 29 64 0.0 1.7 0.00 0.00 0.00 96 1012.5
20211207193453 29 66 0.0 1.7 0.00 0.00 0.00 96 1012.5
20211207192951 29 69 0.0 1.7 0.00 0.00 0.00 96 1012.5
20211207192451 29 59 0.9 2.6 0.00 0.00 0.00 96 1012.5
20211207191951 29 58 0.9 2.6 0.00 0.00 0.00 96 1012.6
20211207191452 30 62 0.0 0.9 0.00 0.00 0.00 96 1012.7
20211207190952 29 61 0.0 1.7 0.00 0.00 0.00 96 1012.7
20211207190452 29 60 0.0 1.7 0.00 0.00 0.00 96 1012.7
20211207185953 29 62 0.9 2.6 0.00 0.00 0.00 96 1012.6
20211207185453 29 62 1.7 4.3 0.00 0.00 0.00 96 1012.6
20211207184952 29 62 1.7 4.3 0.00 0.00 0.00 96 1012.6
20211207184452 29 56 0.9 2.6 0.00 0.00 0.00 96 1012.5
20211207183953 29 54 0.9 2.6 0.00 0.00 0.00 96 1012.4
20211207183453 29 55 0.9 2.6 0.00 0.00 0.00 96 1012.4
20211207182952 29 55 0.9 2.6 0.00 0.00 0.00 96 1012.3
20211207182451 29 60 0.9 2.6 0.00 0.00 0.00 96 1012.4
20211207181951 29 57 0.9 2.6 0.00 0.00 0.00 96 1012.4
20211207181451 29 55 0.9 2.6 0.00 0.00 0.00 96 1012.5
20211207180952 29 56 0.9 3.5 0.00 0.00 0.00 96 1012.5
20211207180452 29 54 0.9 3.5 0.00 0.00 0.00 96 1012.5
20211207175952 29 51 0.0 2.6 0.00 0.00 0.00 96 1012.5
20211207175452 29 53 0.0 1.7 0.00 0.00 0.00 96 1012.5
20211207174952 29 58 0.9 2.6 0.00 0.00 0.00 96 1012.5
20211207174452 29 57 0.9 3.5 0.00 0.00 0.00 96 1012.5
20211207173952 29 60 0.9 3.5 0.00 0.00 0.00 96 1012.5
20211207173452 29 59 0.9 2.6 0.00 0.00 0.00 96 1012.5
20211207172952 29 59 0.9 2.6 0.00 0.00 0.00 96 1012.5
20211207172453 29 63 0.9 2.6 0.00 0.00 0.00 96 1012.5
20211207171952 29 61 0.9 2.6 0.00 0.00 0.00 96 1012.5
20211207170452 30 59 0.9 2.6 0.00 0.00 0.00 96 1012.6
20211207165953 30 60 0.9 2.6 0.00 0.00 0.00 96 1012.6
20211207165453 30 59 0.0 2.6 0.00 0.00 0.00 96 1012.6
20211207164952 30 57 0.9 2.6 0.00 0.00 0.00 96 1012.6
20211207164452 30 57 0.9 1.7 0.00 0.00 0.00 96 1012.6
20211207163952 30 61 0.9 2.6 0.00 0.00 0.00 96 1012.6
20211207163452 30 58 0.9 2.6 0.00 0.00 0.00 96 1012.7
20211207162953 30 56 0.9 2.6 0.00 0.00 0.00 96 1012.7
20211207162453 30 62 0.9 3.5 0.00 0.00 0.00 96 1012.7
20211207161953 30 66 0.0 3.5 0.00 0.00 0.00 96 1012.6
20211207161453 30 51 0.0 1.7 0.00 0.00 0.00 96 1012.6
20211207160954 30 52 0.9 1.7 0.00 0.00 0.00 95 1012.6
20211207160453 30 59 0.9 2.6 0.00 0.00 0.00 95 1012.5
20211207155953 30 61 0.9 2.6 0.00 0.00 0.00 95 1012.4
20211207155452 30 64 0.9 3.5 0.00 0.00 0.00 95 1012.5
20211207154953 30 63 0.9 3.5 0.00 0.00 0.00 95 1012.5
20211207154453 30 48 0.9 2.6 0.00 0.00 0.00 95 1012.5
20211207153953 30 49 0.9 2.6 0.00 0.00 0.00 95 1012.5
20211207152953 30 48 0.9 3.5 0.00 0.00 0.00 95 1012.5
20211207152452 30 46 0.9 2.6 0.00 0.00 0.00 95 1012.4
20211207151953 30 52 0.9 2.6 0.00 0.00 0.00 95 1012.4
20211207151453 30 58 0.0 1.7 0.00 0.00 0.00 95 1012.3
20211207150952 30 28 0.0 1.7 0.00 0.00 0.00 95 1012.3
20211207150453 30 27 0.0 1.7 0.00 0.00 0.00 95 1012.3
20211207144952 30 54 0.0 1.7 0.00 0.00 0.00 95 1012.4
20211207144453 30 55 0.9 1.7 0.00 0.00 0.00 95 1012.4
20211207143952 30 60 0.9 2.6 0.00 0.00 0.00 95 1012.2
20211207143452 30 55 0.9 2.6 0.00 0.00 0.00 95 1012.3
20211207142953 30 52 0.9 2.6 0.00 0.00 0.00 95 1012.2
20211207142453 30 58 0.9 1.7 0.00 0.00 0.00 95 1012.3
20211207141952 30 56 0.9 1.7 0.00 0.00 0.00 95 1012.3
20211207141454 30 59 0.9 3.5 0.00 0.00 0.00 95 1012.2
20211207140954 30 56 0.9 3.5 0.00 0.00 0.00 95 1012.1
20211207140453 30 47 0.9 1.7 0.00 0.00 0.00 95 1012.1
20211207135953 30 52 0.9 3.5 0.00 0.00 0.00 95 1012.1
20211207135454 30 55 0.9 3.5 0.00 0.00 0.00 95 1012.1
20211207134954 30 57 0.9 3.5 0.00 0.00 0.00 95 1012.1
20211207134452 30 55 0.9 2.6 0.00 0.00 0.00 95 1012.0
20211207133954 30 46 0.9 2.6 0.00 0.00 0.00 94 1011.9
20211207133454 30 48 0.9 4.3 0.00 0.00 0.00 94 1011.9
20211207132953 30 48 0.9 4.3 0.00 0.00 0.00 94 1011.9